Temp
-4 -5 -5 -4 -5 -5 -5 -5 -5 -6 -5 -6 -6 -6 -6 -7 -7 -7 -7 -7 -7 -7 -7 -8 -8 -8 -8 -8 -8 -9 -9 -9 -9 -9 -9 -9 -9 -9 -9 -8 -8 -8 -8 -8 -8 -8 -8 -8 -8
-4 -5 -4 -5 -5 -5 -5 -5 -5 -5 -5 -6 -6 -6 -6 -7 -7 -7 -7 -8 -8 -8 -8 -8 -8 -8 -8 -8 -9 -9 -9 -9 -9 -9 -9 -9 -9 -9 -9 -9 -9 -9 -8 -8 -8 -8 -8 -8 -8
-4 -5 -5 -4 -5 -5 -5 -5 -5 -5 -5 -5 -6 -6 -6 -6 -6 -7 -7 -7 -8 -8 -8 -8 -8 -8 -8 -8 -9 -9 -9 -9 -9 -9 -9 -9 -9 -9 -9 -9 -9 -9 -9 -8 -9 -8 -8 -8 -8
-4 -5 -4 -4 -5 -5 -5 -4 -4 -5 -5 -5 -6 -6 -6 -6 -6 -6 -7 -7 -7 -7 -7 -7 -8 -8 -8 -8 -8 -9 -9 -9 -9 -9 -9 -9 -9 -9 -9 -9 -9 -9 -9 -9 -9 -9 -9 -9 -8
-4 -4 -5 -5 -5 -5 -4 -4 -4 -5 -5 -5 -6 -6 -6 -6 -6 -6 -7 -7 -7 -7 -7 -8 -8 -8 -8 -8 -9 -9 -9 -9 -9 -9 -9 -9 -9 -9 -9 -9 -9 -9 -9 -9 -9 -9 -9 -9 -9
-5 -5 -5 -5 -5 -5 -4 -4 -4 -4 -4 -5 -6 -6 -6 -6 -6 -6 -7 -7 -7 -7 -7 -8 -8 -8 -8 -8 -8 -9 -8 -9 -9 -9 -9 -9 -9 -9 -9 -9 -9 -9 -9 -9 -9 -9 -9 -9 -9
-5 -4 -5 -5 -5 -5 -5 -4 -4 -4 -5 -5 -6 -6 -6 -7 -7 -7 -6 -6 -7 -7 -7 -8 -8 -8 -8 -8 -8 -8 -9 -9 -9 -9 -8 -9 -8 -9 -9 -9 -10 -10 -9 -9 -9 -9 -9 -9 -8
-5 -4 -4 -5 -5 -5 -5 -5 -4 -4 -5 -5 -5 -6 -7 -7 -7 -7 -7 -7 -7 -7 -7 -8 -8 -8 -8 -8 -8 -8 -9 -8 -8 -9 -8 -9 -8 -9 -9 -9 -9 -9 -9 -9 -9 -9 -9 -9 -8
-5 -4 -4 -5 -5 -5 -5 -5 -5 -5 -4 -4 -5 -6 -6 -7 -7 -7 -7 -7 -7 -7 -7 -8 -8 -8 -8 -8 -8 -9 -9 -9 -8 -8 -8 -8 -8 -9 -9 -9 -9 -9 -9 -9 -9 -9 -9 -8 -8
-5 -5 -5 -5 -5 -5 -5 -5 -5 -5 -5 -5 -5 -5 -6 -6 -7 -6 -6 -7 -7 -7 -7 -8 -8 -8 -8 -8 -8 -9 -9 -8 -9 -8 -8 -8 -9 -9 -9 -9 -9 -9 -9 -9 -9 -9 -8 -8 -8
-5 -5 -5 -4 -5 -5 -6 -5 -5 -5 -5 -4 -6 -6 -6 -6 -7 -7 -7 -7 -7 -7 -8 -8 -8 -8 -8 -8 -8 -8 -8 -8 -8 -8 -8 -8 -9 -9 -9 -9 -9 -9 -9 -9 -8 -8 -8 -8 -8
-5 -4 -5 -5 -5 -5 -5 -5 -5 -5 -4 -5 -4 -6 -6 -6 -7 -7 -6 -7 -7 -7 -7 -7 -7 -7 -8 -8 -8 -8 -8 -8 -8 -8 -8 -8 -9 -9 -9 -9 -9 -9 -8 -8 -8 -8 -8 -8 -9
-5 -5 -5 -5 -5 -5 -5 -5 -5 -5 -5 -4 -5 -5 -5 -6 -7 -7 -7 -6 -7 -7 -7 -7 -7 -7 -7 -8 -8 -8 -8 -8 -8 -8 -8 -8 -9 -9 -9 -9 -9 -8 -8 -8 -8 -8 -8 -8 -9
-5 -5 -5 -5 -5 -5 -5 -5 -5 -5 -5 -5 -5 -5 -5 -6 -7 -7 -7 -6 -6 -7 -7 -7 -7 -7 -7 -8 -8 -8 -8 -8 -8 -8 -8 -8 -8 -8 -8 -8 -8 -8 -8 -8 -8 -8 -8 -8 -9
-7 -6 -6 -6 -6 -5 -5 -5 -5 -5 -5 -5 -5 -5 -5 -6 -6 -6 -6 -6 -6 -6 -6 -6 -7 -7 -7 -7 -7 -7 -7 -8 -8 -8 -8 -8 -8 -8 -8 -8 -8 -8 -8 -7 -7 -7 -8 -8 -8
-5 -6 -6 -6 -5 -6 -5 -5 -5 -5 -5 -5 -5 -5 -5 -6 -6 -6 -6 -6 -6 -6 -6 -6 -6 -6 -7 -7 -7 -7 -7 -8 -8 -8 -8 -8 -8 -7 -7 -7 -8 -8 -7 -7 -7 -7 -8 -8 -8
-6 -6 -6 -5 -5 -5 -5 -5 -5 -5 -5 -5 -5 -5 -5 -5 -6 -6 -6 -6 -6 -6 -6 -6 -6 -6 -7 -7 -7 -7 -7 -8 -7 -8 -8 -7 -7 -7 -7 -7 -7 -7 -7 -7 -7 -7 -8 -8 -8
-7 -6 -6 -6 -6 -5 -5 -5 -5 -5 -7 -5 -5 -5 -5 -5 -6 -6 -6 -6 -6 -6 -6 -6 -6 -6 -6 -7 -7 -7 -7 -7 -7 -7 -8 -7 -7 -7 -7 -7 -7 -7 -7 -7 -7 -7 -8 -8 -8
-7 -8 -7 -6 -6 -5 -5 -5 -6 -5 -6 -5 -6 -6 -5 -5 -5 -5 -6 -6 -6 -6 -6 -6 -6 -6 -6 -7 -6 -7 -7 -7 -7 -8 -7 -7 -7 -7 -7 -7 -7 -7 -7 -7 -7 -7 -7 -8 -8
-8 -8 -7 -7 -6 -6 -6 -6 -6 -6 -6 -6 -6 -5 -5 -5 -5 -5 -5 -6 -6 -6 -6 -6 -6 -6 -6 -6 -6 -6 -6 -7 -6 -7 -7 -7 -7 -7 -7 -7 -7 -7 -7 -7 -7 -7 -7 -7 -8
-8 -9 -8 -7 -7 -7 -7 -6 -6 -5 -6 -6 -6 -5 -5 -5 -6 -6 -6 -6 -6 -6 -6 -6 -6 -6 -6 -6 -6 -6 -6 -6 -6 -6 -7 -7 -7 -7 -7 -7 -7 -7 -7 -7 -7 -7 -7 -7 -8
-8 -8 -8 -8 -7 -7 -7 -6 -6 -5 -6 -6 -5 -5 -5 -6 -5 -5 -5 -6 -6 -6 -6 -6 -6 -6 -6 -6 -6 -6 -6 -6 -6 -6 -6 -6 -7 -7 -7 -7 -7 -7 -7 -7 -7 -7 -7 -7 -8
-8 -8 -8 -8 -8 -8 -7 -7 -7 -5 -5 -6 -6 -6 -5 -6 -6 -5 -5 -6 -5 -6 -6 -6 -6 -6 -6 -6 -6 -6 -6 -6 -6 -6 -6 -6 -6 -6 -6 -6 -7 -7 -7 -7 -7 -7 -7 -7 -8
-9 -8 -8 -8 -8 -8 -7 -7 -6 -7 -6 -6 -6 -6 -6 -5 -6 -5 -5 -5 -5 -5 -5 -6 -6 -6 -6 -6 -6 -6 -6 -6 -6 -6 -6 -6 -6 -6 -6 -6 -6 -6 -7 -7 -7 -7 -7 -8 -8
-9 -9 -8 -8 -8 -8 -8 -8 -7 -7 -8 -7 -7 -7 -6 -6 -6 -6 -5 -6 -6 -5 -5 -5 -6 -5 -5 -5 -6 -6 -6 -6 -6 -6 -6 -6 -6 -6 -6 -6 -6 -6 -6 -6 -7 -7 -7 -7 -8
-9 -9 -10 -9 -9 -9 -8 -8 -8 -8 -8 -7 -6 -6 -7 -7 -6 -6 -7 -7 -6 -5 -5 -6 -5 -6 -5 -5 -6 -6 -6 -6 -6 -6 -6 -6 -6 -6 -6 -6 -6 -6 -6 -6 -6 -7 -7 -7 -7
-9 -10 -10 -10 -9 -9 -8 -8 -8 -8 -8 -7 -7 -5 -5 -6 -7 -7 -7 -7 -7 -7 -6 -6 -6 -6 -6 -5 -6 -6 -6 -6 -6 -6 -6 -6 -6 -6 -6 -6 -6 -6 -6 -6 -6 -6 -7 -7 -7
-10 -10 -11 -10 -10 -10 -9 -9 -8 -9 -9 -8 -7 -6 -6 -6 -6 -7 -7 -7 -7 -6 -6 -6 -6 -6 -6 -6 -5 -6 -6 -6 -6 -6 -6 -6 -6 -6 -6 -6 -6 -6 -6 -6 -6 -6 -6 -7 -7
-10 -10 -10 -12 -11 -10 -9 -9 -8 -8 -8 -8 -7 -7 -7 -7 -7 -6 -7 -7 -7 -7 -6 -6 -6 -6 -6 -6 -6 -5 -6 -6 -6 -6 -6 -6 -6 -6 -7 -6 -6 -6 -6 -6 -6 -6 -6 -6 -6
-12 -10 -11 -10 -10 -11 -10 -8 -9 -8 -8 -8 -8 -7 -7 -8 -7 -7 -6 -6 -6 -6 -6 -6 -6 -6 -6 -6 -6 -6 -6 -6 -6 -6 -6 -6 -7 -7 -7 -7 -6 -6 -6 -6 -6 -6 -6 -6 -6
Height
5897 5895 5893 5894 5898 5896 5897 5897 5896 5896 5898 5899 5898 5899 5898 5898 5899 5902 5901 5901 5901 5901 5900 5900 5899 5899 5899 5899 5899 5898 5898 5899 5899 5900 5900 5901 5901 5903 5903 5904 5905 5905 5905 5906 5907 5908 5909 5910 5911
5898 5897 5896 5897 5898 5897 5899 5898 5898 5897 5899 5901 5901 5900 5900 5900 5901 5901 5902 5903 5903 5903 5902 5902 5901 5901 5900 5900 5900 5900 5899 5900 5899 5900 5900 5901 5902 5904 5904 5905 5905 5906 5907 5908 5909 5910 5911 5912 5912
5898 5898 5899 5898 5899 5899 5899 5899 5899 5900 5901 5903 5902 5902 5902 5903 5903 5903 5903 5904 5904 5904 5903 5903 5903 5903 5903 5902 5902 5902 5902 5902 5901 5901 5902 5902 5903 5904 5906 5906 5906 5907 5909 5910 5910 5912 5912 5913 5914
5898 5900 5900 5899 5899 5900 5901 5901 5901 5901 5903 5903 5904 5903 5905 5906 5906 5906 5905 5906 5906 5906 5905 5905 5905 5905 5905 5904 5904 5904 5904 5903 5902 5902 5903 5903 5904 5905 5906 5908 5907 5909 5910 5911 5912 5913 5914 5915 5916
5898 5899 5900 5899 5900 5900 5902 5902 5902 5902 5902 5905 5906 5906 5906 5908 5908 5908 5908 5907 5908 5908 5907 5907 5907 5907 5907 5907 5907 5906 5905 5905 5904 5903 5903 5903 5904 5903 5906 5909 5909 5910 5912 5913 5914 5915 5916 5917 5919
5897 5899 5899 5897 5898 5900 5902 5903 5904 5905 5904 5906 5907 5907 5909 5909 5909 5910 5909 5909 5909 5909 5909 5909 5909 5909 5909 5909 5908 5907 5906 5904 5904 5902 5900 5901 5904 5905 5907 5909 5911 5913 5914 5915 5916 5916 5918 5919 5920
5896 5897 5897 5896 5897 5900 5902 5903 5903 5905 5906 5907 5908 5909 5910 5911 5911 5911 5911 5911 5911 5911 5910 5910 5911 5911 5910 5910 5909 5908 5906 5903 5902 5902 5902 5901 5903 5906 5907 5910 5912 5914 5916 5917 5918 5919 5920 5922 5922
5895 5896 5895 5895 5895 5898 5901 5903 5905 5907 5907 5907 5910 5910 5910 5911 5912 5913 5913 5913 5913 5913 5913 5912 5912 5911 5911 5911 5910 5909 5907 5905 5905 5904 5903 5902 5904 5907 5909 5912 5915 5916 5918 5919 5920 5921 5923 5924 5924
5894 5895 5894 5893 5891 5896 5901 5903 5905 5906 5908 5908 5911 5912 5911 5912 5912 5914 5914 5915 5915 5915 5914 5914 5914 5913 5913 5913 5912 5911 5910 5909 5909 5908 5906 5905 5907 5909 5911 5914 5917 5919 5920 5921 5922 5923 5925 5926 5927
5893 5893 5892 5890 5891 5895 5899 5901 5903 5906 5908 5910 5911 5913 5913 5914 5914 5916 5916 5916 5917 5917 5917 5916 5916 5916 5915 5915 5914 5913 5913 5912 5912 5912 5910 5909 5910 5912 5914 5917 5919 5921 5922 5924 5925 5926 5927 5928 5929
5891 5892 5890 5889 5890 5894 5899 5901 5903 5905 5908 5909 5909 5913 5915 5916 5916 5918 5918 5919 5919 5918 5919 5918 5918 5918 5917 5917 5916 5916 5915 5915 5914 5915 5915 5915 5915 5916 5918 5921 5922 5923 5924 5926 5927 5928 5929 5930 5930
5890 5890 5889 5889 5890 5894 5898 5901 5904 5907 5909 5910 5912 5909 5915 5916 5917 5919 5920 5920 5920 5920 5920 5920 5920 5920 5920 5919 5918 5918 5918 5918 5918 5919 5919 5920 5920 5922 5923 5924 5926 5926 5927 5928 5929 5930 5931 5932 5933
5888 5888 5887 5884 5888 5892 5896 5901 5904 5906 5908 5911 5913 5912 5915 5916 5918 5920 5921 5922 5922 5922 5922 5922 5922 5922 5922 5922 5921 5920 5921 5921 5921 5922 5922 5923 5925 5926 5926 5927 5928 5929 5930 5931 5932 5933 5934 5935 5935
5885 5886 5886 5885 5886 5891 5894 5900 5903 5906 5908 5910 5913 5915 5915 5916 5918 5921 5922 5923 5924 5924 5924 5924 5924 5924 5924 5924 5924 5924 5924 5924 5924 5925 5926 5927 5928 5929 5930 5930 5931 5932 5933 5934 5935 5937 5938 5939 5940
5885 5888 5886 5888 5890 5893 5894 5899 5902 5904 5907 5909 5912 5915 5917 5918 5919 5921 5923 5925 5926 5926 5926 5926 5926 5926 5926 5927 5927 5927 5927 5928 5928 5929 5930 5930 5931 5932 5933 5934 5935 5936 5936 5937 5939 5941 5942 5943 5944
5885 5886 5887 5888 5890 5892 5895 5898 5900 5902 5905 5909 5911 5916 5917 5918 5920 5922 5924 5926 5928 5928 5928 5929 5929 5928 5928 5929 5930 5930 5931 5931 5931 5932 5934 5934 5935 5936 5936 5938 5939 5939 5939 5940 5942 5944 5945 5946 5948
5882 5884 5885 5885 5887 5891 5893 5894 5896 5898 5904 5907 5911 5914 5918 5918 5921 5923 5925 5927 5929 5930 5930 5931 5931 5930 5930 5932 5933 5933 5934 5935 5935 5935 5936 5937 5938 5940 5940 5941 5942 5943 5944 5944 5946 5947 5948 5949 5951
5882 5882 5880 5882 5885 5886 5889 5889 5892 5895 5900 5905 5910 5913 5917 5918 5920 5923 5926 5927 5929 5931 5933 5932 5933 5933 5932 5933 5935 5936 5937 5937 5938 5938 5939 5940 5941 5942 5944 5945 5946 5947 5947 5948 5949 5950 5951 5952 5954
5877 5879 5877 5881 5883 5885 5890 5888 5893 5894 5898 5903 5907 5912 5916 5918 5920 5923 5926 5928 5930 5932 5933 5934 5935 5934 5934 5935 5937 5938 5939 5940 5941 5941 5942 5942 5943 5945 5946 5947 5948 5949 5950 5951 5953 5953 5955 5955 5957
5874 5876 5878 5880 5881 5879 5884 5888 5891 5894 5899 5903 5906 5910 5914 5918 5920 5922 5926 5928 5930 5931 5933 5934 5935 5936 5935 5936 5938 5940 5941 5942 5943 5944 5944 5945 5945 5947 5949 5950 5951 5952 5953 5954 5955 5956 5957 5958 5959
5871 5875 5874 5877 5879 5880 5883 5888 5891 5892 5894 5900 5903 5907 5913 5917 5919 5922 5925 5928 5930 5931 5933 5934 5935 5937 5937 5939 5940 5940 5942 5943 5944 5945 5946 5947 5947 5950 5951 5952 5953 5953 5954 5956 5957 5958 5959 5959 5961
5867 5870 5873 5875 5877 5879 5883 5886 5890 5890 5890 5898 5901 5907 5911 5914 5917 5920 5924 5927 5928 5931 5933 5934 5935 5936 5938 5939 5941 5941 5942 5944 5945 5945 5946 5948 5949 5951 5953 5953 5954 5955 5956 5957 5958 5959 5960 5961 5962
5861 5866 5869 5874 5876 5879 5882 5886 5888 5889 5892 5896 5899 5904 5909 5912 5915 5919 5923 5925 5927 5930 5932 5934 5935 5936 5937 5938 5940 5942 5944 5945 5946 5947 5949 5949 5951 5953 5955 5956 5956 5957 5958 5959 5959 5960 5961 5962 5963
5860 5865 5868 5871 5875 5879 5880 5884 5883 5886 5892 5894 5894 5901 5906 5910 5912 5916 5919 5923 5925 5928 5930 5933 5934 5935 5937 5938 5940 5942 5944 5945 5946 5947 5950 5951 5953 5955 5955 5956 5957 5958 5960 5961 5962 5962 5962 5963 5964
5854 5860 5865 5869 5873 5877 5878 5883 5884 5886 5892 5895 5896 5899 5903 5907 5909 5913 5918 5922 5924 5925 5927 5930 5933 5935 5937 5938 5940 5941 5943 5944 5946 5947 5949 5950 5953 5954 5956 5956 5958 5959 5961 5962 5963 5963 5964 5964 5965
5850 5856 5863 5868 5871 5876 5875 5881 5883 5886 5889 5893 5897 5899 5900 5904 5908 5911 5916 5920 5923 5923 5924 5928 5931 5934 5936 5939 5940 5941 5943 5944 5945 5947 5948 5950 5953 5954 5956 5957 5958 5959 5960 5961 5962 5963 5964 5965 5965
5846 5849 5859 5864 5869 5872 5874 5879 5881 5885 5888 5892 5894 5895 5898 5901 5904 5907 5911 5915 5919 5921 5922 5924 5928 5931 5934 5937 5939 5940 5941 5943 5945 5946 5948 5950 5952 5954 5955 5956 5959 5960 5960 5961 5961 5963 5965 5965 5965
5840 5847 5854 5857 5867 5872 5871 5876 5878 5884 5887 5891 5894 5895 5896 5899 5902 5905 5909 5912 5915 5917 5919 5922 5925 5928 5930 5933 5936 5939 5940 5941 5943 5944 5946 5948 5951 5952 5954 5956 5958 5959 5959 5960 5961 5963 5963 5964 5966
5835 5842 5846 5855 5861 5868 5873 5873 5878 5882 5884 5887 5890 5892 5894 5897 5899 5901 5906 5908 5910 5913 5916 5919 5922 5925 5928 5929 5931 5934 5937 5938 5941 5942 5944 5945 5947 5950 5951 5953 5954 5956 5957 5958 5959 5961 5962 5963 5964
5830 5837 5843 5848 5855 5858 5864 5866 5871 5877 5880 5884 5886 5888 5890 5892 5895 5897 5901 5904 5907 5909 5912 5915 5918 5922 5924 5926 5928 5931 5933 5935 5936 5939 5940 5942 5944 5946 5948 5950 5951 5953 5955 5956 5958 5959 5960 5962 5962
Wind_Speed
14 16 9 15 13 12 9 11 11 13 10 9 13 14 18 18 18 17 15 12 12 9 8 6 7 7 7 8 8 9 10 10 9 9 10 9 8 9 8 10 10 10 11 10 11 11 10 11 12
10 12 13 10 10 11 10 10 9 15 12 8 13 16 17 18 18 17 16 12 11 8 7 6 8 6 6 7 9 9 9 10 10 8 8 9 10 10 11 11 11 10 9 10 11 12 12 12 12
7 9 9 5 7 8 8 10 10 12 10 9 15 16 15 16 16 17 14 12 10 9 7 7 8 8 8 8 9 8 9 9 9 9 9 8 10 13 12 12 11 11 10 10 10 12 13 13 13
4 6 8 13 6 5 7 9 10 15 10 9 12 17 15 15 16 16 14 11 10 9 8 8 9 9 8 8 9 9 8 6 6 6 7 7 9 18 14 13 12 12 12 12 13 16 15 14 14
2 1 3 6 6 6 8 9 8 13 13 10 11 14 16 15 15 14 14 12 9 10 10 10 11 10 9 9 8 8 7 8 6 5 7 10 11 14 17 13 13 13 15 15 16 17 17 16 15
4 3 6 9 6 13 10 10 10 11 13 11 12 15 15 18 16 14 14 12 11 10 11 11 12 12 10 10 10 9 7 5 3 3 1 7 11 11 15 15 14 15 16 16 16 17 17 16 16
6 4 11 6 14 16 14 12 14 14 14 13 13 15 17 17 16 16 15 13 12 10 11 12 12 12 12 12 11 9 7 3 3 11 11 10 12 11 15 15 16 17 17 15 16 18 15 15 15
7 9 8 8 10 21 18 13 14 15 16 16 13 19 20 18 18 17 17 14 11 11 11 12 12 14 12 12 13 13 15 22 18 18 13 13 14 12 16 17 17 19 18 16 16 16 15 12 13
8 7 10 12 13 29 22 18 17 17 15 17 16 17 21 20 20 18 18 16 13 12 12 12 13 15 14 13 14 17 16 15 16 18 18 16 18 18 19 18 20 20 18 15 14 13 12 11 11
9 8 10 9 24 29 25 21 21 20 19 18 16 14 19 19 21 18 17 16 12 10 12 13 13 15 16 15 15 17 16 16 14 18 21 19 19 19 20 21 22 19 16 14 12 11 11 10 10
10 8 9 10 28 29 26 22 21 21 21 23 24 14 14 18 19 18 18 16 13 11 10 11 13 16 17 17 16 19 16 17 19 18 19 21 22 23 24 22 20 17 14 13 12 11 11 11 10
9 7 8 8 24 29 26 22 20 21 20 21 22 24 18 19 19 17 16 15 15 13 11 11 12 16 17 17 14 14 18 17 18 17 17 19 21 21 20 18 16 14 12 13 13 13 13 13 14
9 8 6 10 26 27 26 23 19 20 19 20 20 23 22 19 18 17 15 13 15 14 12 11 12 15 17 18 17 16 16 18 19 19 18 16 17 16 15 15 14 13 14 15 15 15 16 16 17
9 7 5 18 28 23 20 22 19 17 21 21 20 22 23 22 20 18 15 13 13 14 12 12 13 14 17 18 15 17 20 20 20 20 18 18 17 16 16 16 15 15 17 16 15 16 16 16 17
10 7 5 17 19 19 22 23 21 21 23 23 22 22 23 21 19 18 15 13 12 13 12 12 13 14 16 18 16 18 19 20 19 19 19 19 19 18 17 17 17 17 17 16 15 15 15 15 16
19 14 12 20 18 16 14 19 18 25 25 25 24 23 21 21 20 18 16 12 11 12 11 11 12 13 15 17 16 16 16 17 19 18 18 17 18 18 17 16 16 15 15 15 13 12 13 13 14
19 16 22 12 20 16 18 17 11 25 29 28 25 24 21 22 19 18 16 13 11 10 11 11 11 13 14 15 15 14 14 15 18 17 16 15 14 15 14 13 13 13 13 12 11 12 13 14 14
17 15 20 10 14 15 8 12 15 17 31 26 26 23 24 24 22 19 17 14 12 10 10 11 12 12 13 13 13 13 14 13 14 15 16 16 15 13 12 13 12 11 11 10 10 11 13 14 15
26 22 18 15 7 16 13 9 14 20 31 29 28 26 25 24 23 20 18 15 13 11 11 11 12 12 12 11 11 12 13 13 13 12 13 14 15 13 12 13 12 11 11 11 10 10 12 14 15
24 22 19 15 14 16 17 16 12 18 25 25 25 26 25 23 22 21 18 17 15 12 11 12 12 12 11 11 11 12 13 12 13 13 12 12 13 13 13 13 12 12 12 11 10 11 11 12 13
25 23 25 19 21 20 16 20 18 20 24 26 24 25 26 23 26 23 20 19 16 15 12 11 12 11 13 11 11 11 12 12 11 11 12 12 11 11 12 10 9 10 10 9 9 11 11 11 11
27 27 25 21 18 22 15 19 24 16 22 22 23 22 23 26 26 25 23 21 20 17 15 13 12 12 12 12 12 11 12 11 11 11 11 11 11 11 9 9 8 8 9 9 7 8 9 10 10
33 26 28 23 20 17 14 14 21 25 20 19 28 25 22 27 26 24 25 23 20 20 17 15 13 12 13 13 11 10 11 11 11 9 9 10 10 10 10 9 9 8 7 7 7 7 8 8 9
31 31 24 24 20 21 18 17 21 22 9 1 29 28 24 22 25 26 25 22 22 21 20 19 17 14 12 12 12 10 10 11 13 12 11 10 10 11 11 9 9 8 7 7 6 6 6 8 9
35 32 30 20 22 18 19 15 17 26 13 1 8 9 29 23 23 24 22 21 23 23 21 21 20 18 14 12 14 12 10 9 10 10 11 11 11 11 12 11 10 10 8 7 6 5 5 6 6
37 33 30 25 21 19 18 11 9 5 9 5 7 6 7 28 23 18 22 23 24 22 22 22 22 21 18 15 12 12 12 10 9 10 11 12 10 11 11 10 10 10 9 8 6 5 5 4 5
39 40 32 29 18 17 22 16 16 9 9 11 14 11 9 5 21 25 24 23 27 27 25 23 23 23 22 19 17 15 13 12 13 11 11 12 12 11 10 10 9 10 10 9 6 5 5 6 5
41 38 35 34 20 18 22 24 17 14 14 14 14 12 19 21 13 11 26 27 24 27 26 25 25 24 23 22 21 20 18 16 15 13 13 13 11 12 12 11 11 11 11 9 9 9 8 8 8
44 40 38 28 27 20 21 23 25 18 15 16 17 17 18 26 20 19 24 26 26 28 25 23 26 25 25 26 26 25 23 21 19 17 17 15 14 13 14 14 14 14 13 12 12 11 12 11 11
41 42 37 36 29 30 25 20 23 21 18 16 16 15 14 32 25 25 30 27 25 26 27 26 25 22 26 28 27 26 27 26 25 22 19 18 17 16 15 16 16 15 15 15 14 15 15 14 13
Wind_Direction
25 43 94 109 103 92 86 110 119 116 102 114 126 119 112 114 114 112 110 110 107 101 98 94 87 67 78 87 93 98 106 110 116 124 131 140 146 143 139 132 133 130 124 121 114 112 114 121 123
29 28 92 113 115 93 95 113 118 114 102 117 127 117 117 125 123 119 116 114 107 102 100 96 86 87 83 84 97 105 107 112 123 128 136 143 146 144 143 142 139 131 128 119 111 113 114 113 115
22 45 59 78 126 105 97 123 119 109 108 127 134 119 119 126 126 120 116 116 106 104 106 98 97 100 102 94 98 110 110 115 127 136 142 158 146 143 141 135 129 125 122 120 124 119 114 116 120
29 35 74 120 151 171 125 142 139 123 118 126 134 121 118 125 124 123 114 105 100 106 112 103 97 97 100 100 107 115 115 124 132 132 137 153 129 133 136 130 119 125 123 119 116 115 117 120 122
333 138 182 162 166 175 152 153 154 137 125 129 129 122 119 122 118 115 109 107 100 111 108 102 104 107 109 106 110 112 119 119 129 143 178 179 155 143 136 133 127 128 126 121 119 118 120 124 127
273 273 245 213 223 187 174 159 151 135 126 132 133 126 123 123 121 118 115 112 108 105 105 104 105 111 107 102 102 100 92 93 134 175 192 137 154 147 139 139 132 127 126 124 125 124 123 126 125
238 290 340 227 245 182 169 171 153 147 132 136 137 134 129 126 125 123 117 113 111 112 107 104 105 104 97 101 102 84 73 52 68 91 103 136 150 130 144 140 132 129 127 124 131 127 125 131 132
261 279 307 291 215 177 167 164 155 149 142 139 151 146 138 135 131 127 120 114 112 114 109 106 104 102 97 98 91 72 60 80 91 78 87 125 133 131 136 138 133 130 130 130 130 140 143 138 137
253 268 282 303 219 173 165 160 156 153 150 143 148 152 142 143 136 132 123 117 110 109 108 102 104 102 96 94 87 82 78 82 87 82 82 110 132 131 126 134 132 134 135 133 136 137 135 137 136
245 266 294 313 173 165 163 159 166 159 156 150 150 155 148 145 138 134 124 118 109 103 104 109 109 105 96 96 90 89 91 89 98 89 83 100 116 121 125 132 133 132 129 133 134 131 126 125 121
249 260 285 295 183 166 168 167 173 166 168 162 149 151 154 145 140 137 129 117 106 102 105 103 102 103 99 103 102 86 89 88 89 98 96 98 109 117 122 127 129 127 127 128 123 119 115 110 105
229 251 256 251 174 172 173 174 169 176 172 167 159 147 166 152 148 143 130 120 105 96 104 107 103 103 103 108 110 88 91 92 96 106 98 109 110 116 123 126 126 126 123 118 115 113 108 104 97
213 236 275 202 200 173 176 181 167 175 175 167 166 155 165 153 155 153 140 127 111 101 99 106 109 107 107 106 103 103 94 100 103 102 102 117 110 124 123 122 120 117 116 111 109 113 107 99 98
212 216 249 148 158 170 183 180 183 182 177 174 168 170 169 161 161 160 152 138 120 107 100 99 108 112 111 110 105 102 100 105 103 104 104 109 111 114 117 118 118 115 113 115 116 108 106 101 102
192 208 201 159 151 166 185 180 187 198 185 176 175 180 172 164 164 163 160 149 131 113 103 97 106 118 116 111 113 105 106 102 110 105 104 105 108 111 114 118 121 120 117 117 115 115 113 111 111
186 205 208 178 171 176 180 182 192 190 185 181 176 187 173 168 170 166 169 158 144 127 111 104 106 119 122 115 117 117 107 109 109 113 110 108 113 117 118 119 122 126 127 124 120 116 115 113 118
207 217 190 196 176 190 201 196 200 188 187 179 180 186 177 169 177 173 175 167 162 140 128 118 114 114 122 117 116 125 121 114 111 116 118 115 110 113 119 123 125 126 125 126 122 119 116 119 127
208 222 231 220 221 145 200 209 186 214 176 181 180 186 181 175 179 180 178 179 173 157 141 130 126 120 117 123 119 120 127 125 118 116 122 121 119 117 114 114 113 116 116 115 111 111 114 118 122
198 209 222 228 216 140 184 200 179 170 167 183 178 187 191 181 181 181 177 183 184 172 152 146 136 136 131 123 134 126 126 132 127 121 119 122 122 121 121 123 123 119 116 114 110 109 111 115 120
210 218 221 227 217 235 180 189 200 192 180 173 184 190 193 187 186 188 182 181 186 176 167 153 149 143 140 140 144 144 135 138 137 132 126 125 125 127 132 131 128 129 126 126 123 113 115 116 114
210 211 225 217 225 215 230 193 206 220 182 186 186 191 193 189 192 191 191 186 184 180 179 169 160 157 146 146 147 157 152 145 141 140 139 133 135 139 139 139 135 135 128 129 127 121 121 127 124
210 213 223 226 235 246 253 183 187 223 179 193 204 199 196 194 196 197 194 196 187 191 188 183 176 171 160 153 154 167 166 161 159 163 153 150 146 151 155 151 155 145 143 138 132 127 137 138 140
213 210 220 226 237 249 249 236 216 186 207 213 208 198 200 196 198 201 201 204 198 199 197 190 188 182 171 163 159 167 168 170 172 168 168 172 170 169 171 171 166 163 160 155 144 142 140 152 158
213 215 219 225 229 227 237 231 206 186 176 211 195 217 204 197 200 201 203 206 207 205 201 200 194 193 185 181 179 177 167 173 181 176 178 181 181 183 189 192 191 183 181 172 164 154 148 159 176
215 214 216 225 217 226 237 241 245 248 264 92 189 215 208 195 194 202 205 209 212 209 208 206 203 202 193 195 182 181 192 190 186 186 190 191 190 195 196 196 193 196 199 184 183 170 162 160 181
220 217 217 229 233 238 228 225 229 226 150 176 213 222 206 198 200 195 202 207 215 214 215 215 214 210 208 206 198 205 207 210 217 202 199 203 204 208 206 206 200 205 206 200 194 201 202 195 191
219 222 211 212 207 225 233 225 188 192 172 210 227 251 227 248 218 198 197 199 216 218 220 223 222 221 217 219 216 212 216 218 221 217 210 215 213 212 220 221 218 221 220 220 213 212 227 233 231
223 223 219 223 211 223 246 227 208 202 214 216 228 227 222 211 221 209 212 210 209 215 220 225 230 229 228 226 227 225 220 218 222 226 220 219 222 229 221 229 235 234 227 229 233 233 228 228 236
223 225 223 223 225 220 242 264 224 221 216 218 228 235 218 211 241 240 216 221 214 216 218 221 227 229 228 231 230 230 229 225 223 226 227 223 226 226 234 231 235 236 242 237 239 235 236 237 235
225 224 232 233 223 221 205 231 237 208 206 214 216 227 227 213 213 210 233 222 225 228 223 220 220 227 228 230 234 234 233 230 229 230 227 224 226 225 226 233 235 239 241 246 244 247 242 241 238